Flag for Denmark Weather past 2 weeks in Roskilde, Denmark

Now
43 °F

Quite cool.


Feels Like: 40 °F
Forecast: 37 / 59 °F
Wind: 5 mph from East

Location: Koebenhavn / Roskilde


UV Index: 3 (Moderate)

Visibility: N/A


Pressure: 30.09 "Hg

Humidity: 81%

Dew point: 37 °F

Location of RoskildeLocation

Historic Weather in Roskilde

°F

Roskilde temperature yesterday

Maximum temperature yesterday: 55 °F (at 1:20 PM)
Minimum temperature yesterday: 37 °F (at 1:50 AM)
Average temperature yesterday: 47 °F

Past Weeks' High & Low Weather Summary

 TemperatureHumidityPressure
High57 °F (Apr 7, 12:20 PM)100% (Apr 5, 2:20 PM)30.42 "Hg (Apr 5, 2:20 PM)
Low28 °F (Apr 16, 6:20 AM)32% (Apr 16, 12:20 PM)29.47 "Hg (Apr 14, 8:20 AM)
Average45 °F81%29.94 "Hg
* Reported Apr 3 10:20 PM — Apr 18 10:20 PM, Roskilde, Weather by CustomWeather, © 2014

Note: Actual official high and low records may vary slightly from our data, if they occured in-between our weather recording intervals... More about our weather records

Advertising

Historic Weather Conditions — Data for Previous 24 hours

 ConditionsComfort  
Time TempWeatherWind HumidityBarometerVisibility
10:20 PM
Apr 18
43 °FQuite cool.5 mph87%30.07 "HgN/A
9:50 PM43 °FQuite cool.6 mph81%30.04 "HgN/A
9:20 PM45 °FQuite cool.5 mph81%30.01 "HgN/A
8:50 PM46 °FPassing clouds.5 mph76%30.01 "HgN/A
8:20 PM48 °FBroken clouds.8 mph71%29.98 "HgN/A
7:50 PM48 °FPartly sunny.7 mph66%29.98 "HgN/A
7:20 PM50 °FBroken clouds.2 mph67%29.95 "HgN/A
6:50 PM52 °FScattered clouds.2 mph62%29.92 "HgN/A
6:20 PM48 °FScattered clouds.7 mph76%29.92 "HgN/A
5:50 PM50 °FBroken clouds.6 mph71%29.89 "HgN/A
5:20 PM48 °FPartly sunny.5 mph76%29.89 "HgN/A
4:50 PM48 °FScattered clouds.5 mph76%29.89 "HgN/A
4:20 PM46 °FPartly sunny.5 mph82%29.86 "HgN/A
3:20 PM45 °FRain. Mostly cloudy.3 mph81%29.86 "Hg4 mi
2:50 PM46 °FOvercast.5 mph76%29.83 "HgN/A
2:20 PM46 °FBroken clouds.2 mph76%29.83 "HgN/A
1:50 PM48 °FPartly sunny.8 mph71%29.80 "HgN/A
1:20 PM46 °FOvercast.10 mph71%29.80 "HgN/A
12:50 PM48 °FPartly sunny.7 mph66%29.77 "HgN/A
12:20 PM48 °FPassing clouds.9 mph66%29.77 "HgN/A
11:50 AM48 °FPartly sunny.12 mph71%29.77 "HgN/A
11:20 AM46 °FPartly sunny.14 mph66%29.74 "HgN/A
10:50 AM48 °FPassing clouds.12 mph71%29.74 "HgN/A
10:20 AM46 °FScattered clouds.9 mph76%29.74 "HgN/A
9:50 AM45 °FScattered clouds.9 mph76%29.71 "HgN/A
9:20 AM45 °FScattered clouds.6 mph81%29.71 "HgN/A
8:50 AM43 °FBroken clouds.3 mph93%29.68 "HgN/A
8:20 AM41 °FBroken clouds.5 mph100%29.68 "HgN/A
7:50 AM41 °FDrizzle. Partly sunny.7 mph100%29.68 "HgN/A
7:20 AM41 °FBroken clouds.3 mph100%29.68 "HgN/A
6:50 AM39 °FPassing clouds.2 mph100%29.65 "HgN/A
6:20 AM39 °FPassing clouds.2 mph100%29.65 "HgN/A
5:50 AM39 °FSprinkles. Partly cloudy.1 mph100%29.65 "HgN/A
5:20 AM39 °FPartly cloudy.2 mph93%29.65 "HgN/A
4:50 AM39 °FMostly cloudy.1 mph100%29.65 "HgN/A
4:20 AM39 °FPassing clouds.1 mph93%29.62 "HgN/A
3:50 AM37 °FPassing clouds.2 mph100%29.62 "HgN/A
3:20 AM37 °FChilly.3 mph93%29.62 "HgN/A
2:50 AM37 °FChilly.6 mph93%29.62 "HgN/A
2:20 AM39 °FPassing clouds.7 mph93%29.65 "HgN/A
1:50 AM43 °FPartly cloudy.13 mph93%29.65 "HgN/A
1:20 AM45 °FSprinkles. Partly cloudy.10 mph93%29.65 "HgN/A
12:50 AM45 °FSprinkles. Partly cloudy.10 mph93%29.65 "HgN/A
12:20 AM45 °FSprinkles. Mostly cloudy.10 mph93%29.65 "Hg4 mi
11:50 PM
Apr 17
45 °FSprinkles. Overcast.13 mph93%29.68 "HgN/A
11:20 PM45 °FLight rain. Mostly cloudy.13 mph93%29.68 "HgN/A
Weather by CustomWeather, © 2014

See weather overview